Location: Ladrillo (historical)
(32.8195°N, 117.2231°W)
Time: 00:10:54
(UTC+00:00)

Altair - Pass Details

Date: 01 March 2021
Orbit: 1501 x 1683 km, 47.2° (Epoch: 16 April)

Event Time Altitude Azimuth Distance (km) Brightness Sun altitude
Rises 03:56:15 0° 258° (WSW) 4,632 11.1 -28.1°
Reaches altitude 10° 03:59:25 10° 264° (W) 3,662 10.3 -28.8°
Maximum altitude 04:08:14 48° 337° (NNW) 1,940 8.1 -30.6°
Enters shadow 04:13:09 27° 34° (NE) 2,627 8.5 -31.6°
